Location: Antioch Baptist Church
(32.6696°N, 85.7327°W)
Time: 11:50:27
(UTC+00:00)

Cosmos 1743 - Pass Details

Date: 14 July 2020
Orbit: 511 x 526 km, 82.6° (Epoch: 08 August)

Event Time Altitude Azimuth Distance (km) Brightness Sun altitude
Exits shadow 09:22:56 19° 277° (W) 1,249 4.2 -15.5°
Maximum altitude 09:23:10 20° 282° (WNW) 1,245 4.3 -15.4°
Drops below altitude 10° 09:26:00 10° 330° (NNW) 1,743 5.5 -15.0°
Sets 09:28:36 0° 349° (NNW) 2,637 6.7 -14.6°
